User: anonymous   Login
Location: Eckley
(40.9930°N, 75.8630°W)
Time: 13:55:44
(UTC-05:00)
Language:

Cosmos 2221 Rocket - Orbit

View from above orbital plane
View from above orbital plane
View from above satellite
View from above satellite

Ground track
Ground track

The orbit data is extracted from the following two-line orbital elements,

1 22237U 92080B   17350.50132069  .00000093  00000-0  97017-5 0  9998
2 22237  82.5117 308.1189 0019020 333.6328 165.3020 14.78340421350371
Epoch (UTC): 16 December 2017 12:01:54
Eccentricity: 0.0019020
inclination: 82.5117°
perigee height: 621 km
apogee height: 648 km
right ascension of ascending node: 308.1189°
argument of perigee: 333.6328°
revolutions per day: 14.78340421
mean anomaly at epoch: 165.3020°
orbit number at epoch: 35037

The dashed part of the orbit path shows where the satellite is in the earth's shadow,  

DLR